• In Belarus
  • List of Countries
  • For 7 days
  • Water Temperature
  • Satellite Maps
  • Weather Map
  • Weather Widgets
  • user-avatar
    Login

    Hourly Weather Kaprun

    Today, 19 July, Friday

    Time Temperature Precipitation Wind Pressure Humidity
    00:00 +6°C° 0 mm 1 mps 597 mmHg 90%
    01:00 +6°C° 0 mm 1 mps 597 mmHg 90%
    02:00 +6°C° 0 mm 1 mps 597 mmHg 89%
    03:00 +6°C° 0 mm 1 mps 597 mmHg 88%
    04:00 +6°C° 0 mm 1 mps 597 mmHg 87%
    05:00 +7°C° 0 mm 1 mps 598 mmHg 82%
    06:00 +8°C° 0 mm 0 mps 599 mmHg 78%
    07:00 +10°C° 0 mm 0 mps 600 mmHg 73%
    08:00 +12°C° 0 mm 0 mps 601 mmHg 65%
    09:00 +14°C° 0 mm 1 mps 601 mmHg 57%
    10:00 +16°C° 0 mm 1 mps 602 mmHg 49%
    11:00 +18°C° 0 mm 1 mps 602 mmHg 47%
    12:00 +19°C° 0 mm 1 mps 602 mmHg 46%
    13:00 +19°C° 0 mm 1 mps 603 mmHg 44%
    14:00 +19°C° 0.3 mm 1 mps 602 mmHg 49%
    15:00 +18°C° 0.3 mm 1 mps 602 mmHg 53%
    16:00 +18°C° 0.3 mm 1 mps 602 mmHg 58%
    17:00 +15°C° 0.7 mm 1 mps 601 mmHg 69%
    18:00 +14°C° 0.7 mm 1 mps 601 mmHg 80%
    19:00 +11°C° 0.7 mm 0 mps 600 mmHg 91%
    20:00 +11°C° 0.1 mm 1 mps 600 mmHg 91%
    21:00 +9°C° 0.1 mm 1 mps 599 mmHg 91%
    22:00 +8°C° 0.1 mm 1 mps 599 mmHg 92%
    23:00 +8°C° 0 mm 1 mps 599 mmHg 92%

    Tomorrow, 20 July, Saturday

    Time Temperature Precipitation Wind Pressure Humidity
    00:00 +8°C° 0 mm 1 mps 599 mmHg 91%
    01:00 +7°C° 0 mm 1 mps 599 mmHg 91%
    02:00 +7°C° 0 mm 1 mps 599 mmHg 90%
    03:00 +7°C° 0 mm 1 mps 599 mmHg 90%
    04:00 +7°C° 0 mm 1 mps 599 mmHg 89%
    05:00 +9°C° 0 mm 1 mps 600 mmHg 86%
    06:00 +11°C° 0 mm 1 mps 601 mmHg 82%
    07:00 +13°C° 0 mm 1 mps 602 mmHg 78%
    08:00 +15°C° 0 mm 1 mps 602 mmHg 69%
    09:00 +18°C° 0 mm 1 mps 603 mmHg 60%
    10:00 +20°C° 0 mm 1 mps 604 mmHg 51%
    11:00 +21°C° 0.1 mm 1 mps 604 mmHg 50%
    12:00 +21°C° 0.1 mm 1 mps 604 mmHg 49%
    13:00 +22°C° 0.1 mm 1 mps 604 mmHg 48%
    14:00 +21°C° 0.8 mm 1 mps 604 mmHg 53%
    15:00 +20°C° 0.8 mm 1 mps 604 mmHg 57%
    16:00 +19°C° 0.8 mm 1 mps 603 mmHg 62%
    17:00 +18°C° 0.9 mm 1 mps 603 mmHg 70%
    18:00 +15°C° 0.9 mm 1 mps 603 mmHg 79%
    19:00 +13°C° 0.9 mm 0 mps 602 mmHg 87%
    20:00 +13°C° 0.9 mm 1 mps 602 mmHg 88%
    21:00 +12°C° 0.9 mm 1 mps 602 mmHg 88%
    22:00 +12°C° 0.9 mm 2 mps 602 mmHg 89%
    23:00 +10°C° 0.1 mm 2 mps 602 mmHg 86%

    Day after tomorrow, 21 July, Sunday

    Time Temperature Precipitation Wind Pressure Humidity
    00:00 +9°C° 0.1 mm 2 mps 601 mmHg 84%
    01:00 +9°C° 0.1 mm 1 mps 601 mmHg 82%
    02:00 +9°C° 0 mm 1 mps 601 mmHg 79%
    03:00 +10°C° 0 mm 1 mps 601 mmHg 75%
    04:00 +10°C° 0 mm 1 mps 601 mmHg 72%
    05:00 +12°C° 0 mm 1 mps 602 mmHg 68%
    06:00 +14°C° 0 mm 1 mps 603 mmHg 65%
    07:00 +15°C° 0 mm 0 mps 604 mmHg 61%
    08:00 +18°C° 0.1 mm 1 mps 605 mmHg 57%
    09:00 +19°C° 0.1 mm 1 mps 605 mmHg 53%
    10:00 +20°C° 0.1 mm 1 mps 606 mmHg 48%
    11:00 +20°C° 0.5 mm 1 mps 606 mmHg 50%
    12:00 +20°C° 0.5 mm 1 mps 606 mmHg 53%
    13:00 +19°C° 0.5 mm 2 mps 606 mmHg 55%
    14:00 +19°C° 0.9 mm 2 mps 606 mmHg 64%
    15:00 +18°C° 0.9 mm 2 mps 605 mmHg 73%
    16:00 +17°C° 0.9 mm 2 mps 605 mmHg 82%
    17:00 +16°C° 0.7 mm 1 mps 605 mmHg 85%
    18:00 +15°C° 0.7 mm 1 mps 605 mmHg 88%
    19:00 +14°C° 0.7 mm 1 mps 605 mmHg 91%
    20:00 +13°C° 0.1 mm 1 mps 604 mmHg 91%
    21:00 +11°C° 0.1 mm 1 mps 604 mmHg 91%
    22:00 +10°C° 0.1 mm 1 mps 604 mmHg 92%
    23:00 +10°C° 0 mm 1 mps 604 mmHg 91%

    22 July, Monday

    Time Temperature Precipitation Wind Pressure Humidity
    00:00 +9°C° 0 mm 1 mps 603 mmHg 90%
    01:00 +9°C° 0 mm 1 mps 603 mmHg 89%
    02:00 +9°C° 0 mm 1 mps 603 mmHg 88%
    03:00 +9°C° 0 mm 1 mps 603 mmHg 88%
    04:00 +8°C° 0 mm 1 mps 603 mmHg 88%
    05:00 +9°C° 0 mm 0 mps 604 mmHg 84%
    06:00 +11°C° 0 mm 0 mps 605 mmHg 81%
    07:00 +13°C° 0 mm 0 mps 606 mmHg 78%
    08:00 +16°C° 0.1 mm 1 mps 607 mmHg 71%
    09:00 +18°C° 0.1 mm 1 mps 607 mmHg 65%
    10:00 +20°C° 0.1 mm 1 mps 608 mmHg 59%
    11:00 +20°C° 0.3 mm 1 mps 608 mmHg 59%
    12:00 +19°C° 0.3 mm 2 mps 608 mmHg 59%
    13:00 +20°C° 0.3 mm 2 mps 608 mmHg 59%
    14:00 +20°C° 0.2 mm 2 mps 608 mmHg 59%
    15:00 +19°C° 0.2 mm 2 mps 608 mmHg 59%
    16:00 +19°C° 0.2 mm 2 mps 607 mmHg 59%
    17:00 +18°C° 0.1 mm 2 mps 607 mmHg 69%
    18:00 +18°C° 0.1 mm 1 mps 606 mmHg 79%
    19:00 +15°C° 0.1 mm 1 mps 606 mmHg 89%
    20:00 +14°C° 0 mm 1 mps 605 mmHg 91%
    21:00 +12°C° 0 mm 1 mps 605 mmHg 93%
    22:00 +10°C° 0 mm 1 mps 604 mmHg 95%
    23:00 +10°C° 0 mm 1 mps 604 mmHg 92%

    23 July, Tuesday

    Time Temperature Precipitation Wind Pressure Humidity
    00:00 +9°C° 0 mm 1 mps 604 mmHg 89%
    01:00 +9°C° 0 mm 1 mps 603 mmHg 86%
    02:00 +9°C° 0 mm 1 mps 603 mmHg 83%
    03:00 +9°C° 0 mm 1 mps 603 mmHg 80%
    04:00 +8°C° 0 mm 1 mps 603 mmHg 77%
    05:00 +11°C° 0 mm 1 mps 604 mmHg 71%
    06:00 +12°C° 0 mm 0 mps 605 mmHg 66%
    07:00 +14°C° 0 mm 0 mps 606 mmHg 60%
    08:00 +18°C° 0 mm 1 mps 606 mmHg 53%
    09:00 +20°C° 0 mm 1 mps 607 mmHg 45%
    10:00 +22°C° 0 mm 1 mps 608 mmHg 38%
    11:00 +22°C° 0 mm 1 mps 608 mmHg 36%
    12:00 +23°C° 0 mm 1 mps 608 mmHg 34%
    13:00 +24°C° 0 mm 2 mps 608 mmHg 32%
    14:00 +24°C° 0 mm 2 mps 607 mmHg 34%
    15:00 +23°C° 0 mm 2 mps 607 mmHg 36%
    16:00 +22°C° 0 mm 3 mps 607 mmHg 38%
    17:00 +20°C° 0 mm 2 mps 606 mmHg 51%
    18:00 +18°C° 0 mm 2 mps 605 mmHg 64%
    19:00 +16°C° 0 mm 1 mps 604 mmHg 77%
    20:00 +15°C° 0 mm 1 mps 604 mmHg 81%
    21:00 +13°C° 0 mm 1 mps 603 mmHg 84%
    22:00 +11°C° 0 mm 1 mps 602 mmHg 88%
    23:00 +11°C° 0 mm 1 mps 602 mmHg 85%

    24 July, Wednesday

    Time Temperature Precipitation Wind Pressure Humidity
    00:00 +10°C° 0 mm 1 mps 602 mmHg 81%
    01:00 +10°C° 0 mm 1 mps 602 mmHg 78%
    02:00 +10°C° 0 mm 1 mps 601 mmHg 76%
    03:00 +10°C° 0 mm 1 mps 601 mmHg 74%
    04:00 +10°C° 0 mm 1 mps 601 mmHg 72%
    05:00 +12°C° 0 mm 1 mps 602 mmHg 68%
    06:00 +13°C° 0 mm 0 mps 603 mmHg 63%
    07:00 +15°C° 0 mm 0 mps 604 mmHg 59%
    08:00 +17°C° 0 mm 0 mps 604 mmHg 52%
    09:00 +21°C° 0 mm 1 mps 605 mmHg 45%
    10:00 +22°C° 0 mm 1 mps 605 mmHg 38%
    11:00 +23°C° 0 mm 1 mps 605 mmHg 36%
    12:00 +24°C° 0 mm 1 mps 605 mmHg 34%
    13:00 +24°C° 0 mm 2 mps 605 mmHg 32%
    14:00 +24°C° 0 mm 2 mps 605 mmHg 34%
    15:00 +24°C° 0 mm 2 mps 604 mmHg 36%
    16:00 +24°C° 0 mm 2 mps 604 mmHg 38%
    17:00 +22°C° 0 mm 1 mps 603 mmHg 52%
    18:00 +20°C° 0 mm 1 mps 603 mmHg 66%
    19:00 +18°C° 0 mm 1 mps 602 mmHg 80%
    20:00 +16°C° 0 mm 1 mps 601 mmHg 83%
    21:00 +15°C° 0 mm 1 mps 601 mmHg 86%
    22:00 +14°C° 0 mm 2 mps 601 mmHg 89%
    23:00 +14°C° 0 mm 2 mps 601 mmHg 90%
    Show more